Back to catalog

BREEZE-M DEB

AliveHEO
NORAD 38640·DEBRIS·🇷🇺 Russia

Launched Mar 14, 2008 from Baikonur Cosmodrome

Loading…

Next Passes (next 24 hours)

TLE

FreshSource: Space-Track

Epoch: Sep 8, 2026, 05:53 UTC

1 38640U 08011CP  26251.24544818  .00000237  00000-0  14136-1 0  9991
2 38640  48.7654   2.5012 6378163 258.5835  67.0217  3.01786916170032

Track BREEZE-M DEB in real time with AllMySat

Download on the App Store